Theta_e
296 296 295 295 293 292 290 289 289 288 287 287 286 285 284 284 283 283 282 282 282 282 282 281 281 281 282 282 282 282 282 282 282 281 281 281 281 280 280 280 280 280
295 295 294 293 291 290 290 289 288 288 286 286 285 284 284 283 283 283 282 282 282 281 281 281 281 281 281 281 281 282 282 282 281 282 281 280 281 281 281 280 280 280
294 293 293 291 290 288 288 288 288 287 286 285 285 284 283 283 283 283 283 282 281 281 281 281 281 281 280 281 281 281 281 281 281 281 281 281 281 280 280 280 280 280
293 292 292 290 289 288 288 287 287 286 286 285 284 284 283 283 283 282 282 281 281 281 281 281 281 281 280 280 281 281 281 281 281 281 280 281 281 280 280 280 279 279
291 290 290 289 288 288 288 287 286 286 285 284 283 284 283 283 282 282 282 281 281 281 281 280 280 280 280 281 281 281 281 281 281 280 280 280 280 280 280 280 279 278
290 289 289 288 288 287 287 286 286 285 284 283 283 283 283 282 282 282 281 281 281 281 280 280 280 280 280 280 281 281 280 281 280 280 279 279 279 280 279 279 279 278
288 288 287 287 287 287 286 286 285 285 284 284 283 283 283 282 282 281 281 281 280 280 280 280 280 280 280 280 280 280 280 280 280 280 279 279 279 278 279 278 278 278
287 287 287 286 286 286 286 285 285 284 284 283 283 283 283 282 281 282 281 281 280 280 280 280 280 280 280 280 279 280 280 280 280 279 279 278 278 278 278 278 278 278
287 286 286 286 286 285 285 285 285 284 283 283 283 283 283 282 282 281 281 280 280 280 280 279 279 279 280 279 279 279 279 280 280 280 279 278 278 278 278 278 278 278
286 286 285 285 285 286 285 285 284 284 283 283 283 283 283 282 282 281 281 280 280 280 279 279 279 279 279 279 279 279 279 279 280 280 280 279 279 279 278 278 278 277
286 285 285 285 286 286 285 285 284 284 283 283 283 283 282 282 281 281 281 280 279 279 279 279 279 279 278 278 279 279 279 280 280 280 280 280 280 279 279 278 278 277
286 285 285 285 285 285 285 284 284 283 283 283 283 283 282 282 281 281 281 280 279 279 279 279 279 278 278 278 279 279 280 280 281 281 281 280 280 279 279 279 278 277
286 286 286 285 285 285 285 284 284 283 283 283 283 283 282 281 281 280 280 280 279 279 279 278 278 278 278 278 278 280 280 281 281 281 281 280 280 280 280 279 278 277
286 286 286 286 286 285 285 284 284 283 283 283 283 282 281 281 280 280 280 280 279 279 279 278 278 278 278 278 279 280 281 281 281 281 281 280 280 280 280 279 278 277
286 286 286 285 285 285 284 284 284 283 283 283 283 282 281 281 281 280 279 279 279 278 278 278 277 278 278 278 280 282 283 282 281 281 280 280 279 279 279 278 277 276
286 285 285 285 285 284 284 284 283 283 282 282 282 282 281 281 280 280 279 279 278 278 278 278 278 278 277 277 280 282 282 282 282 281 281 280 279 278 278 277 276 276
286 285 285 284 285 285 284 283 283 282 282 282 282 281 281 280 280 279 279 279 278 278 278 278 277 277 276 280 281 281 282 282 282 281 280 279 279 277 276 276 276 276
286 285 284 284 285 284 284 283 283 282 282 282 281 281 281 280 279 279 279 279 278 278 278 278 278 277 278 280 281 281 281 282 282 280 279 279 278 277 277 276 275 275
286 285 285 284 284 284 284 283 282 282 282 281 281 281 281 280 280 279 279 279 278 278 278 278 278 277 278 280 280 281 281 281 281 279 278 278 278 277 277 276 275 275
286 285 285 285 284 284 283 283 282 282 282 282 282 281 280 280 280 279 279 279 278 278 278 278 278 277 278 279 280 280 281 281 280 278 278 278 277 277 276 276 275 275
286 285 285 285 284 284 283 283 282 282 282 282 282 281 281 280 280 280 279 279 279 278 278 278 277 277 278 279 279 280 280 280 279 278 278 278 277 277 276 276 275 275
286 286 285 285 284 283 283 283 283 283 282 282 282 282 282 281 281 281 280 279 279 278 278 277 278 277 278 278 279 279 280 280 279 278 278 277 277 277 276 276 275 275
287 286 285 285 284 283 283 283 283 283 283 283 282 282 281 281 281 280 280 280 279 278 278 278 278 277 277 278 278 279 280 280 279 278 278 277 277 276 276 276 276 276
287 286 286 285 284 284 283 283 284 284 283 283 282 282 281 282 281 281 280 280 279 278 278 278 278 277 276 277 278 278 279 279 279 278 277 277 276 276 276 276 276 275
287 287 286 286 285 285 284 284 284 284 284 283 282 283 283 282 281 281 280 279 279 279 278 276 277 277 276 277 277 278 279 279 278 278 276 276 275 275 276 276 275 275
287 287 286 286 286 285 285 285 285 284 283 283 282 282 282 282 281 281 280 279 278 277 276 276 277 277 276 276 277 278 278 279 279 276 276 275 275 274 274 275 275 274
Wind_Speed
5 4 5 4 4 5 5 5 4 4 3 3 3 3 3 3 1 2 1 2 2 2 2 3 2 3 3 3 3 3 3 2 3 3 4 4 4 4 4 5 5 5
5 5 4 5 5 5 5 5 4 4 4 4 3 3 3 2 1 1 1 1 2 2 2 2 2 3 4 3 3 3 3 3 3 2 4 4 4 4 4 5 5 5
6 6 6 7 7 7 6 5 4 4 4 4 4 3 2 1 1 1 1 1 2 1 1 1 2 3 3 3 4 2 3 3 3 4 4 4 4 5 5 5 5 5
6 6 6 7 7 8 6 5 5 4 4 4 3 2 2 2 2 2 1 1 2 1 1 1 2 2 2 3 3 2 3 3 3 4 4 4 4 4 5 5 5 5
7 6 6 6 6 7 6 5 5 4 4 4 3 3 3 3 2 1 1 1 1 1 1 1 1 1 2 2 3 3 3 3 3 4 4 5 5 5 5 5 6 7
5 6 6 7 7 7 6 6 5 5 5 4 3 3 3 2 2 1 1 1 1 1 2 1 1 1 1 2 2 3 3 3 3 4 5 5 5 5 5 6 7 7
7 7 7 6 7 6 6 6 5 5 5 3 3 3 3 3 2 1 1 1 2 2 1 1 1 1 1 1 2 3 3 3 3 4 5 5 6 6 6 6 6 7
8 7 6 6 7 6 6 6 5 5 5 4 4 4 3 3 2 1 1 2 2 2 1 1 1 1 1 1 2 3 3 2 3 4 5 6 6 6 7 6 7 7
8 7 7 8 7 6 6 6 5 5 5 5 4 4 3 3 2 2 2 2 2 2 1 1 1 1 1 2 2 2 3 3 3 3 4 6 6 7 7 7 7 7
8 7 8 8 7 6 7 6 6 5 5 5 4 4 4 3 2 2 3 3 2 2 2 2 2 2 2 2 2 2 3 4 4 4 4 6 6 7 7 7 7 8
8 8 8 8 7 6 7 7 6 6 5 5 5 4 4 3 3 2 3 3 2 2 2 2 2 2 2 2 2 2 3 4 4 4 4 5 6 7 7 8 8 8
9 8 8 9 8 7 8 7 6 6 6 5 5 5 4 3 3 3 3 3 2 2 2 2 2 2 2 2 2 3 3 4 4 4 5 5 6 7 7 7 8 8
9 8 8 8 7 7 7 6 6 6 6 6 5 4 5 4 3 3 3 2 2 2 2 3 3 2 2 2 3 3 4 4 4 5 5 4 4 6 7 7 8 7
8 8 8 7 6 6 7 6 6 6 6 5 5 5 4 4 4 3 3 3 2 2 2 2 2 2 2 2 2 4 4 4 5 5 5 5 5 6 6 6 6 6
7 6 6 6 6 6 7 7 6 6 6 6 5 4 4 4 3 3 3 4 3 3 2 2 2 1 2 2 3 4 4 5 5 5 6 6 6 6 5 5 6 5
7 6 7 7 7 7 7 7 7 7 6 6 6 5 5 4 4 4 4 4 4 3 2 2 1 1 1 5 7 4 5 4 5 5 6 5 5 5 5 5 5 5
7 7 7 8 7 7 7 7 7 7 7 7 6 5 5 5 4 5 5 4 4 3 3 2 2 1 3 6 5 5 5 5 5 5 5 5 5 4 5 5 5 6
7 8 8 8 7 7 7 7 7 7 7 7 6 6 5 5 5 5 5 5 3 3 3 2 2 2 5 5 5 4 4 5 4 4 5 5 4 4 4 4 5 5
8 8 8 8 8 8 7 7 7 8 8 7 8 6 5 6 6 5 5 5 4 4 3 3 3 2 5 5 4 4 4 5 3 4 5 4 4 4 4 4 4 5
8 8 9 8 7 7 7 8 8 9 8 7 6 5 6 6 6 7 6 5 5 4 3 3 3 3 5 5 4 4 4 4 3 3 4 4 4 4 4 5 4 4
9 9 9 8 8 8 8 8 8 8 8 7 6 6 6 6 6 7 6 5 5 4 3 3 3 4 6 5 5 4 4 3 2 3 3 3 3 3 4 4 4 4
9 9 9 8 8 8 8 9 9 9 8 7 6 5 5 5 5 6 6 6 5 5 4 4 3 5 6 6 5 5 4 3 2 3 2 3 3 2 3 3 3 4
10 9 9 9 9 9 9 9 9 9 8 6 6 6 6 6 7 6 5 5 5 5 5 5 4 5 6 6 5 4 4 2 2 2 2 2 2 2 3 3 3 4
10 10 10 9 9 10 10 9 8 7 7 6 7 7 7 7 6 5 5 5 6 6 6 5 4 5 6 6 5 4 4 3 2 2 2 2 2 2 3 3 3 4
9 10 10 10 10 10 9 9 9 9 6 6 6 6 6 5 5 5 5 5 6 6 5 5 5 4 7 6 6 4 4 3 2 2 2 2 2 3 3 3 3 3
9 10 10 10 10 9 8 9 7 6 7 7 6 6 6 5 5 5 5 5 5 5 5 6 5 4 5 7 6 5 5 3 2 2 2 2 2 3 3 3 3 3
Wind_Direction
148 162 160 151 127 119 119 129 133 125 104 90 86 87 76 79 85 56 50 39 34 26 19 11 8 8 6 4 355 325 334 339 335 345 328 324 312 316 312 314 312 312
151 153 143 129 116 112 120 130 127 115 103 93 90 95 91 111 115 86 57 42 49 29 6 0 3 13 8 358 346 332 337 348 335 349 319 321 312 308 308 315 307 309
153 152 146 135 127 129 131 124 120 111 103 101 102 96 113 139 137 138 93 35 36 20 355 339 353 14 5 349 334 335 352 340 340 343 326 316 316 318 319 316 316 314
154 147 134 123 130 137 134 131 124 113 119 122 111 122 150 153 161 153 139 70 28 345 316 329 357 0 348 339 332 354 349 344 351 337 325 321 322 326 321 317 313 314
147 134 127 129 136 134 134 135 128 125 121 111 132 168 167 164 174 157 120 56 353 312 317 332 352 348 326 338 340 3 356 354 3 346 332 325 324 325 319 313 313 310
134 133 133 143 142 139 143 136 133 134 126 135 164 174 158 170 158 139 80 27 304 292 309 337 341 326 306 331 344 14 1 0 0 348 339 332 328 324 319 316 314 313
145 142 144 146 138 144 139 136 135 137 132 150 172 176 168 165 158 126 129 263 271 290 322 328 344 320 313 320 354 8 6 359 347 348 343 337 328 322 322 318 314 309
146 144 149 148 143 152 144 141 145 139 139 173 188 168 168 155 151 154 229 243 263 284 298 311 308 308 310 330 353 358 358 354 339 344 340 329 328 325 323 321 309 305
148 150 154 151 153 159 152 148 147 139 154 190 191 169 160 157 153 196 226 248 254 274 288 294 311 311 325 341 352 347 342 338 327 329 329 327 322 322 320 317 311 312
154 155 158 159 166 166 156 152 150 148 172 202 191 176 158 147 174 201 234 244 257 260 277 292 299 313 326 346 352 342 333 330 324 318 325 326 317 321 319 315 314 313
158 163 164 169 176 166 158 153 156 157 181 204 193 176 152 153 175 209 234 243 255 279 290 294 304 311 323 346 348 329 314 317 318 316 316 324 323 321 316 315 316 317
164 169 171 177 180 167 160 159 162 168 187 205 202 173 152 164 190 205 229 241 256 270 287 295 301 311 322 333 332 318 314 312 314 309 315 321 322 320 317 317 319 321
172 176 173 181 182 168 157 162 169 175 194 203 202 176 157 174 196 216 222 242 244 264 278 296 303 311 318 325 316 313 307 308 307 314 315 313 311 317 320 320 323 327
177 173 174 182 179 161 159 165 172 181 199 206 198 183 167 182 197 212 219 232 241 253 270 284 298 309 325 316 304 302 301 303 312 315 313 310 313 315 323 330 333 338
168 168 173 179 173 161 162 172 178 188 198 205 206 188 169 181 195 208 222 228 231 241 253 271 288 320 336 340 326 316 316 314 311 309 311 312 315 320 332 339 339 339
168 165 175 180 177 170 171 176 182 191 198 208 209 194 174 180 191 207 226 236 237 232 240 255 274 288 286 279 286 308 315 310 307 307 313 314 316 322 329 340 343 339
169 175 178 187 181 169 170 179 187 192 200 209 209 196 182 181 197 210 220 228 231 239 244 243 246 243 267 286 299 308 308 310 309 311 314 311 311 318 324 332 341 334
179 175 183 188 179 176 176 184 188 196 204 208 209 199 189 187 201 214 222 221 225 229 240 242 251 235 271 283 297 310 308 313 310 317 315 307 308 315 320 331 328 329
180 180 187 187 184 176 176 182 191 201 207 208 212 203 185 195 208 210 220 219 222 231 237 238 244 233 264 274 291 301 309 314 301 318 311 308 310 313 321 322 320 320
183 183 191 190 179 175 177 187 196 207 209 208 207 196 198 204 209 214 218 218 216 225 238 234 252 225 255 271 280 291 302 315 287 304 302 302 303 314 321 321 317 314
186 188 193 187 178 176 183 195 202 209 208 206 204 206 202 205 209 214 216 215 212 216 231 239 235 229 252 266 275 286 303 287 284 289 294 300 306 312 321 317 316 309
185 188 192 185 179 179 188 200 205 208 209 203 202 210 209 207 216 217 216 208 206 205 223 239 223 211 242 255 272 285 295 269 274 287 285 302 302 311 328 319 308 308
186 186 190 187 182 184 194 202 204 208 210 197 203 210 208 210 216 215 210 207 196 199 219 235 230 202 223 243 262 278 280 271 279 283 291 293 300 317 318 304 292 310
186 188 190 187 185 193 197 202 204 205 205 191 204 207 212 214 213 214 205 201 200 204 211 227 232 181 204 235 247 259 278 272 273 285 290 291 303 316 311 293 298 312
186 190 194 190 193 196 194 197 200 202 196 185 206 216 220 212 209 216 206 193 199 209 176 214 236 193 198 225 236 243 254 259 265 278 284 306 315 313 301 285 298 294
187 190 196 194 197 193 192 200 192 187 192 191 201 211 216 217 209 215 211 197 181 192 197 214 225 220 189 212 225 228 238 259 255 262 272 291 300 292 298 298 288 296